Probability
0 0 0 0 0 0 0 0 0 0 0 0 0 0 0 0 0 0 0 0 0 0 0 0 0 0 0 0 0 0 0 0 0 0 0 0 0 0 0 0 0 0 0
0 0 0 0 0 0 0 0 0 0 0 0 0 0 0 0 0 0 0 0 0 0 0 0 0 0 0 0 0 0 0 0 0 0 0 0 0 0 0 0 0 0 0
0 0 0 0 0 0 0 0 0 0 0 0 0 0 0 0 0 0 0 0 0 0 0 0 0 0 0 0 0 0 0 0 0 0 0 0 0 0 0 0 0 1 2
0 0 0 0 0 0 0 0 0 0 0 0 0 0 0 0 0 0 0 0 0 0 0 0 0 0 0 0 0 0 0 0 0 0 0 0 0 0 0 0 1 3 4
0 0 0 0 0 0 0 0 0 0 0 0 0 0 0 0 0 0 0 0 0 0 0 0 0 0 0 0 0 0 0 0 0 0 0 0 0 0 0 0 0 2 3
0 0 0 0 0 0 0 0 0 0 0 0 0 0 0 0 0 0 0 0 0 0 0 0 0 0 0 0 0 0 0 0 0 0 0 0 0 0 0 0 0 0 1
0 0 0 0 0 0 0 0 0 0 0 0 0 0 0 0 0 0 0 0 0 0 0 0 0 0 0 0 0 0 0 0 0 0 0 0 0 0 0 0 0 0 0
0 0 0 0 0 0 0 0 0 0 0 0 0 0 0 0 0 0 0 0 0 0 0 0 0 0 0 0 0 0 0 0 0 0 0 0 0 0 0 0 0 1 1
0 0 0 0 0 0 0 0 0 0 0 0 0 0 0 0 0 0 0 0 0 0 0 0 0 0 0 0 0 0 0 0 0 0 0 1 1 1 0 1 3 4 4
0 0 0 0 0 0 0 0 0 0 0 0 0 0 0 0 0 0 0 0 0 0 0 0 0 0 0 0 0 0 0 0 0 0 0 1 3 2 1 3 5 6 6
0 0 0 0 0 0 0 0 0 0 0 0 0 0 0 0 0 0 0 0 0 0 0 0 0 0 0 0 0 0 0 0 0 0 0 1 2 3 2 2 3 3 3
0 0 0 0 0 0 0 0 0 0 0 0 0 0 0 0 0 0 0 0 0 0 0 0 0 0 0 0 0 0 0 0 0 0 0 0 0 1 1 0 0 0 0
0 0 0 0 0 0 0 0 0 0 0 0 0 0 0 0 0 0 0 0 0 0 0 0 0 0 0 0 0 0 0 0 0 0 0 0 0 0 0 0 0 0 0
0 0 0 0 0 0 0 0 0 0 0 0 0 0 0 0 0 0 0 0 0 0 0 0 0 0 0 0 0 0 0 0 0 0 0 0 0 0 0 0 0 0 0
0 0 0 0 0 0 0 0 0 0 0 0 0 0 0 0 0 0 0 0 0 0 0 0 0 0 0 0 0 0 0 0 0 0 0 0 0 0 0 0 0 0 0
0 0 0 0 0 0 0 0 0 0 0 0 0 0 0 0 0 0 0 0 0 0 0 0 0 0 0 0 0 0 0 0 0 0 0 0 0 0 0 0 0 0 0
0 0 0 0 0 0 0 0 0 0 0 0 0 0 0 0 0 0 0 0 0 0 0 0 0 0 0 0 0 0 0 0 0 0 0 0 0 0 0 0 0 0 0
0 0 0 0 0 0 0 0 0 0 0 0 0 0 0 0 0 0 0 0 0 0 0 0 0 0 0 0 0 0 0 0 0 0 0 0 0 0 0 0 0 0 0
0 0 0 0 0 0 0 0 0 0 0 0 0 0 0 0 0 0 0 0 0 0 0 0 0 0 0 0 0 0 0 0 0 0 0 0 0 0 0 0 0 0 0
0 0 0 0 0 0 0 0 0 0 0 0 0 0 0 0 0 0 0 0 0 0 0 0 0 0 0 0 0 0 0 0 0 0 0 0 0 0 0 0 0 0 0
0 0 0 0 0 0 0 0 0 0 0 0 0 0 0 0 0 0 0 0 0 0 0 0 0 0 0 0 0 0 0 0 0 0 0 0 0 0 0 0 0 0 0
0 0 0 0 0 0 0 0 0 0 0 0 0 0 0 0 0 0 0 0 0 0 0 0 0 0 0 0 0 0 0 0 0 0 0 0 0 0 0 0 0 0 0
0 0 0 0 0 0 0 0 0 0 0 0 0 0 0 0 0 0 0 0 0 0 0 0 0 0 0 0 0 0 0 0 0 0 0 0 0 0 0 0 0 0 0
0 0 0 0 0 0 0 0 0 0 0 0 0 0 0 0 0 0 0 0 0 0 0 0 0 0 0 0 0 0 0 0 0 0 0 0 0 0 0 0 0 0 0
0 0 0 0 0 0 0 0 0 0 0 0 0 0 0 0 0 0 0 0 0 0 0 0 0 0 0 0 0 0 0 0 0 0 0 0 0 0 0 0 0 0 0
0 0 0 0 0 0 0 0 0 0 0 0 0 0 0 0 0 0 0 0 0 0 0 0 0 0 0 0 0 0 0 0 0 0 0 0 0 0 0 0 0 0 0
Wind_Speed
2 3 2 2 3 3 3 3 4 5 6 6 6 6 6 7 7 6 5 11 14 17 21 23 24 24 25 26 27 28 28 28 28 29 29 29 28 29 30 30 30 30 29
2 2 3 3 4 3 3 3 4 5 4 4 6 7 6 7 7 7 6 8 13 15 17 21 23 23 24 25 26 28 28 29 29 30 31 31 30 30 31 32 32 32 32
4 4 4 4 4 4 4 4 5 5 5 5 6 6 5 6 8 8 8 7 8 12 15 17 19 21 22 23 24 26 27 28 29 30 31 31 31 31 32 33 34 34 34
6 5 5 4 5 5 5 5 5 5 5 6 6 6 6 6 8 8 8 8 7 7 9 12 15 18 20 22 23 25 25 25 26 28 30 32 32 32 34 35 35 35 36
8 6 5 5 6 5 5 6 5 5 6 7 7 7 7 7 8 9 8 8 9 9 7 10 13 14 17 20 24 26 26 25 25 27 28 30 31 34 35 37 37 38 38
8 7 5 6 6 5 5 6 6 7 5 6 9 8 8 8 7 6 9 9 9 12 11 11 9 10 14 16 19 22 25 24 24 25 27 28 29 30 31 34 36 38 40
7 7 5 5 5 5 6 6 5 6 5 5 5 6 7 6 6 10 11 10 11 11 10 11 8 8 8 15 17 22 27 30 30 28 26 26 27 29 30 31 31 33 37
7 7 6 5 5 5 6 6 4 4 4 5 5 5 5 6 6 9 7 8 9 8 12 13 12 11 10 8 13 22 27 30 30 30 29 28 28 29 30 31 32 32 33
7 6 6 5 5 5 4 5 5 6 5 5 5 4 4 5 10 4 7 8 8 8 8 9 11 11 11 9 10 14 16 19 24 27 28 28 28 28 28 29 29 31 32
6 6 5 5 5 4 5 5 5 4 5 4 4 3 4 7 7 8 5 5 9 9 9 9 9 11 11 10 12 16 14 22 26 28 29 30 30 29 29 29 29 29 30
6 5 5 4 4 4 5 5 5 5 4 4 3 4 5 5 7 10 12 7 6 6 6 7 8 9 11 11 9 14 24 29 31 31 31 32 33 33 32 31 31 32 31
4 5 4 4 4 3 4 4 4 6 5 5 4 4 5 5 7 9 13 13 9 6 6 6 7 8 9 9 14 21 28 32 32 33 33 32 33 34 34 34 34 34 34
3 4 4 4 4 4 4 4 5 6 7 6 5 5 5 5 7 8 11 13 14 9 8 6 6 6 10 8 8 20 25 31 32 34 35 35 35 34 35 35 35 34 34
3 4 4 5 5 5 5 5 5 6 6 7 8 8 6 6 6 6 8 11 15 15 10 8 5 7 7 6 13 25 14 27 31 33 35 35 35 35 34 35 35 35 35
3 5 5 5 5 6 6 6 5 6 7 7 7 8 7 6 6 6 6 6 10 18 17 11 7 7 6 7 16 12 10 24 32 33 33 34 34 34 34 34 34 35 35
4 5 5 5 6 6 6 6 6 7 8 8 7 8 9 7 6 6 6 5 5 10 18 14 9 8 10 14 21 14 12 30 30 32 32 33 33 33 34 34 34 34 34
5 5 5 5 6 6 6 6 7 9 9 8 9 10 11 10 8 6 5 5 6 6 13 15 11 11 11 12 14 10 11 11 13 28 31 32 33 34 34 33 34 34 34
4 5 5 6 7 7 7 7 8 9 9 9 10 12 13 11 10 8 6 6 6 7 10 17 14 11 14 13 13 12 14 15 11 24 30 32 34 34 34 34 35 35 34
4 5 5 6 7 8 8 8 8 8 7 9 11 13 14 13 12 8 7 7 7 10 8 12 15 13 12 12 14 14 14 10 14 19 26 28 30 32 34 34 34 33 29
5 6 6 6 7 8 8 9 8 7 8 9 10 13 14 14 12 9 9 9 9 9 10 12 14 13 13 13 11 11 13 9 11 14 19 22 27 31 32 33 33 31 29
6 6 7 7 7 8 8 10 8 9 8 9 11 14 15 19 22 18 14 9 9 10 12 13 14 14 14 13 12 11 15 14 12 9 11 13 13 12 15 22 27 29 29
6 7 7 7 8 9 17 22 17 8 7 10 14 15 15 15 18 23 26 27 24 18 16 15 14 15 18 17 13 13 14 16 17 6 9 14 12 13 12 10 22 29 28
6 7 7 7 8 10 21 22 21 12 8 9 13 14 14 14 19 12 20 25 21 24 25 19 17 17 18 17 17 17 16 17 17 12 13 15 10 11 11 14 27 30 30
6 6 8 8 8 12 21 22 22 10 8 10 12 13 13 12 15 20 17 16 14 13 19 17 13 14 16 15 15 17 17 18 14 10 11 15 10 10 12 11 22 29 30
6 7 8 9 9 11 19 22 21 8 8 9 11 12 15 15 24 30 20 18 17 13 21 27 28 27 31 31 25 15 14 14 16 10 6 11 12 12 11 11 15 26 25
7 8 9 8 9 9 17 22 22 7 8 9 9 10 19 23 28 31 21 17 15 14 15 16 16 18 16 18 25 16 13 15 16 14 7 9 12 12 11 7 7 7 11
Wind_Direction
13 24 340 344 337 346 340 338 327 322 324 319 320 318 311 301 294 286 278 272 266 258 266 274 275 273 272 272 271 266 261 259 257 255 254 253 251 248 244 242 240 239 237
47 20 3 18 11 356 345 338 334 329 321 325 317 307 310 314 305 301 293 286 278 265 260 273 279 277 276 275 276 276 271 263 257 254 254 254 252 250 248 245 242 240 239
50 46 40 26 359 349 356 7 353 337 328 323 312 306 304 299 290 289 291 288 283 274 261 266 275 279 278 277 276 277 278 277 270 262 256 253 251 250 249 248 245 242 240
54 58 46 22 9 17 16 5 357 351 344 334 327 321 319 310 298 297 296 292 294 288 274 265 264 267 270 274 278 278 275 277 277 275 268 262 256 252 249 248 247 244 241
38 48 44 30 12 19 18 4 357 354 342 336 332 329 323 314 306 308 319 336 338 333 328 318 303 286 274 275 288 294 291 288 287 285 283 277 271 265 260 255 251 248 245
41 33 35 32 18 17 14 9 3 356 343 344 335 328 314 306 309 349 351 343 336 333 333 333 331 330 327 320 315 315 311 308 302 294 290 289 287 283 278 271 264 257 252
46 44 28 26 20 19 25 10 7 348 345 335 334 325 307 326 345 360 337 331 330 331 340 335 330 335 332 330 326 322 321 316 310 307 302 295 292 292 291 286 281 274 264
40 42 33 28 18 22 22 4 11 352 341 346 350 337 331 314 8 329 310 328 318 336 333 329 330 327 323 322 319 321 319 321 319 312 307 304 304 304 301 296 292 286 279
45 36 35 30 19 27 16 0 14 1 346 340 356 351 333 310 317 281 325 306 327 328 318 317 317 318 320 319 316 314 331 345 334 327 321 315 311 309 309 309 308 306 298
63 35 37 38 31 30 20 358 6 349 346 328 332 340 304 307 313 307 293 307 314 310 308 313 322 319 318 317 312 315 337 334 327 323 320 317 313 310 309 311 313 318 321
74 41 35 38 38 29 12 357 348 335 326 315 316 311 305 306 303 304 302 300 292 289 302 316 314 313 315 311 311 315 324 324 321 317 313 311 310 309 309 311 314 314 314
70 45 29 25 30 20 357 342 337 325 313 307 307 299 293 299 304 302 303 306 302 294 300 299 301 302 306 310 314 321 323 318 316 315 313 310 308 308 310 311 310 309 309
55 31 23 11 6 358 347 339 333 314 303 303 301 292 286 285 289 296 299 303 302 300 294 284 285 296 308 304 309 320 318 315 314 314 312 310 309 308 308 308 307 305 304
43 22 14 4 356 349 339 329 315 302 305 302 300 294 291 287 284 294 297 303 304 303 297 293 297 304 301 311 314 316 311 313 312 310 309 309 308 307 307 306 304 302 300
27 13 360 357 345 334 323 315 301 300 297 295 291 288 288 284 281 282 285 289 299 304 304 306 303 297 309 310 306 306 312 312 309 306 305 304 302 303 302 301 300 298 296
18 354 353 347 332 320 313 309 305 300 300 296 294 295 293 291 287 285 283 286 289 297 299 302 305 312 313 308 306 307 302 304 302 300 299 299 298 297 295 294 294 295 294
5 352 344 330 317 309 309 309 307 307 301 298 304 305 300 299 296 292 294 293 288 289 295 301 303 304 301 300 299 287 290 288 290 296 299 301 301 299 298 298 296 294 293
353 336 324 314 309 310 309 306 303 304 298 309 312 307 304 305 302 299 294 293 293 295 291 295 299 298 295 293 294 293 299 296 294 297 301 302 301 300 300 299 297 294 294
331 319 312 306 304 303 301 297 296 295 309 315 311 308 306 303 298 293 293 292 289 290 283 290 294 296 294 292 293 293 292 291 297 299 302 301 300 300 298 297 297 296 298
314 304 299 295 295 296 297 296 296 309 308 306 307 305 302 297 294 294 293 283 285 289 288 289 292 297 298 293 291 298 299 292 294 300 297 296 297 299 298 297 297 297 295
300 292 292 295 295 299 301 304 311 310 309 310 307 302 297 297 301 301 300 300 299 296 297 295 297 301 303 306 302 299 300 302 292 291 290 291 292 287 289 291 294 292 292
294 296 299 300 302 306 312 313 314 311 308 310 306 301 296 298 302 310 312 307 305 307 308 305 305 303 302 299 298 299 301 299 295 286 279 289 287 285 287 285 290 294 296
305 307 305 305 300 300 312 314 316 316 305 301 300 301 305 310 315 305 302 306 310 307 307 306 301 297 300 304 301 297 294 293 293 299 294 289 283 285 290 295 299 300 299
308 306 303 298 296 303 315 317 317 314 293 292 297 302 307 309 306 305 304 308 305 302 302 303 295 297 300 299 296 298 298 296 288 282 281 289 291 288 292 290 294 292 290
309 302 298 299 300 306 316 317 315 297 291 293 297 304 308 304 304 311 315 310 306 301 309 307 306 307 307 308 307 303 299 297 297 294 277 285 292 291 286 281 279 281 285
300 301 301 301 302 303 315 318 318 303 301 302 301 300 306 309 312 316 315 311 310 308 309 311 308 304 301 297 301 297 297 296 296 297 279 278 289 293 290 261 252 265 282